BADR-4

Last updated on Sept. 30, 2020, 5:50 a.m. UTC

1 29526U 06051A   20273.83382547  .00000127  00000-0  00000-0 0  9990
2 29526   0.0683 326.5276 0004082 264.0634 104.6301  1.00275387 30352
UTC
Height (km)
Latitude
Longitude
Inclination
Orbital Period
UTC large
Height (km)
Speed (km/s)
/
Latitude / Longitude
Inclination (degrees)
Orbital Period (minutes)
Azimuth
Elevation
Range (km)
Doppler Factor
iOS Compass Heading
iOS Angle

Next 30 passes for location: Hong Kong

Rise time Rise Azimuth (degrees) Set time Set Azimuth (degrees) Duration Max altitude (degrees)

No matching passes for this satellites